Regional Weather Roundup
Issued by NWS Green Bay, WI

Home | Current Version | Previous Version | Graphics & Text | Print | Product List | Glossary Off
Versions: 1 2 3 4 5 6 7 8 9 10 11 12 13 14 15 16 17 18 19 20 21 22 23 24 25 26 27 28 29 30 31 32 33 34 35 36 37 38 39 40 41 42 43 44 45 46 47 48 49 50

000
ASUS43 KGRB 221010
RWRGRB

NORTH-CENTRAL AND NORTHEAST WISCONSIN REGIONAL WEATHER ROUNDUP
NATIONAL WEATHER SERVICE GREEN BAY WI
500 AM CDT TUE JUL 22 2014

WIZ005-009-010>012-018-019-221100-
NORTH CENTRAL WISCONSIN

CITY           SKY/WX    TMP DP  RH WIND       PRES   REMARKS
IRONWOOD       CLOUDY    70  63  78 S7G24     29.71F
MANITOWISH WTR CLOUDY    72  67  85 N6        29.84S
ARBOR VITAE    CLOUDY    73  68  84 S9        29.84F
EAGLE RIVER    CLOUDY    72  65  81 S3        29.87F
LAND O LAKES   CLOUDY    73  67  82 S5        29.87S
RHINELANDER    CLOUDY    72  67  84 S12       29.88F
PHILLIPS       LGT RAIN  73  70  88 SW10G21   29.82F
ANTIGO         CLOUDY    69  67  94 S8        29.92S
TOMAHAWK       CLOUDY    71  67  85 S5        29.86F
MERRILL        CLOUDY    73  69  88 S6        29.88F
$$

WIZ013-073-221100-
NORTHEAST WISCONSIN

CITY           SKY/WX    TMP DP  RH WIND       PRES   REMARKS
IRON MOUNTAIN  CLOUDY    71  67  87 VRB5      29.89R
MARINETTE      MOCLDY    72  66  83 SW12G18   29.90F
OCONTO         PTCLDY    73  69  88 S8        29.91F
$$

WIZ017-030-035>037-045-221100-
CENTRAL WISCONSIN

CITY           SKY/WX    TMP DP  RH WIND       PRES   REMARKS
MEDFORD        CLOUDY    72  68  88 S10       29.87F
WAUSAU         CLOUDY    73  68  84 S10       29.87F
MOSINEE        CLOUDY    72  70  94 S10       29.91R
MARSHFIELD     CLOUDY    73  68  84 S12       29.88R
WISC RAPIDS    CLOUDY    75  68  78 SW10      29.90F
STEVENS POINT  CLOUDY    71  67  85 S9        29.91S
WAUPACA        MOCLDY    74  70  88 S9        29.92F
SHAWANO        CLOUDY    74  68  81 S3        29.91F
CLINTONVILLE   MOCLDY    72  68  88 S10       29.90F
$$

WIZ038-039-048-051-221100-
FOX VALLEY

CITY           SKY/WX    TMP DP  RH WIND       PRES   REMARKS
NWS GREEN BAY  PTCLDY    75  68  78 S14G21    29.93F
APPLETON       PTCLDY    72  64  78 S14       29.94F
OSHKOSH        PTCLDY    73  68  84 S13G22    29.94F
FOND DU LAC    CLEAR     73  66  78 S13G23    29.96F
$$

WIZ022-050-052-221100-
EAST CENTRAL WISCONSIN

CITY           SKY/WX    TMP DP  RH WIND       PRES   REMARKS
STURGEON BAY   PTCLDY    68  63  83 S10       29.94F
MANITOWOC      CLEAR     60  59  96 E5        29.97F FOG
SHEBOYGAN      PTCLDY    70  66  87 S9        29.98F
$$

LMZ563-521-522-541>543-221100-
LAKESHORE

STATION/POSITION TIME  TEMP    WIND        PRES    VSBY  WAVE
                       AIR SEA DIR/SP/G                  HT/PER
                 (UTC) (F)     (DEG/KT/KT) (MB)    (MI)  (FT/S)
SHEBOYGAN LKSHOR 1000   68     180/ 16/ 16 1015.0F
KEWAUNEE LKSHORE 1000   56     180/ 11/ 13 1015.0F
NORTHPORT PIER   1000   63     140/  6/  8 1013.5S
N MID LAKE BUOY  1000   62 56  200/ 14/ 16 1013.6F         2/ 4
CHAMBERS ISLAND  1000   72     160/  8/ 13 1012.9F
MENOMINEE LKSHOR 1000   71     170/ 12/ 16 1013.2F
$$


USA.gov is the U.S. government's official web portal to all federal, state and local government web resources and services.